Homer, AK

7:49 PM AKDT on September 25, 2016 (GMT -0800)
Homer

Weather History for PAHO - November, 2010

Change the Weather History Date:

Monday, November 29, 2010

  Actual Average Record
Temperature  
Mean Temperature 21 °F -  
Max Temperature 24 °F 32 °F 48 °F (1976)
Min Temperature 18 °F 21 °F -5 °F (1990)
Degree Days  
Heating Degree Days 44    
Moisture  
Dew Point 5 °F    
Average Humidity 50    
Maximum Humidity 60    
Minimum Humidity 42    
Precipitation  
Precipitation 0.00 in - - ()
Sea Level Pressure  
Sea Level Pressure 29.60 in    
Wind  
Wind Speed 11 mph (NE)    
Max Wind Speed 22 mph    
Max Gust Speed 38 mph    
Visibility 10 miles    
Events      
Averages and records for this station are not official NWS values.
T = Trace of Precipitation, MM = Missing Value Source: NWS Daily Summary

Daily Weather History Graph

Daily Weather History Graph

Search for Another Location

Airport or City:

Trip Planner

Search our weather history database for the weather conditions in past years. The results will help you decide how hot, cold, wet, or windy it might be!

Date:

Astronomy

Nov. 29, 2010 Rise Set
Actual Time 9:34 AM AKST 4:13 PM AKST
Civil Twilight 8:41 AM AKST 5:06 PM AKST
Nautical Twilight 7:47 AM AKST 6:00 PM AKST
Astronomical Twilight 6:57 AM AKST 6:50 PM AKST
Moon 1:20 AM AKST (11/29) 1:41 PM AKST (11/29)
Length of Visible Light 8h 24m
Length of Day
6h 39m
Last Quarter, 38% of the Moon is Illuminated
Nov 29
Last Quarter
Dec 5
New
Dec 13
First Quarter
Dec 20
Full
Dec 27
Last Quarter

Hourly Weather History & Observations

Time (AKST) Temp. Windchill Dew Point Humidity Pressure Visibility Wind Dir Wind Speed Gust Speed Precip Events Conditions
12:53 AM 19.9 °F 10.1 °F 5.0 °F 52% 29.74 in 10.0 mi ENE 8.1 mph 18.4 mph N/A   Clear
1:53 AM 21.0 °F 7.1 °F 5.0 °F 50% 29.72 in 10.0 mi NNE 16.1 mph 27.6 mph N/A   Clear
2:53 AM 19.9 °F 6.7 °F 6.1 °F 55% 29.72 in 10.0 mi ENE 13.8 mph - N/A   Clear
3:53 AM 19.0 °F 8.2 °F 6.1 °F 57% 29.71 in 10.0 mi NE 9.2 mph - N/A   Clear
4:53 AM 19.0 °F 8.2 °F 5.0 °F 54% 29.69 in 10.0 mi ENE 9.2 mph - N/A   Clear
5:53 AM 18.0 °F 7.7 °F 6.1 °F 60% 29.66 in 10.0 mi NNE 8.1 mph - N/A   Clear
6:53 AM 21.0 °F 9.3 °F 5.0 °F 50% 29.64 in 10.0 mi NNE 11.5 mph 23.0 mph N/A   Clear
7:53 AM 21.9 °F 6.2 °F 5.0 °F 48% 29.61 in 10.0 mi NNE 21.9 mph 38.0 mph N/A   Clear
8:53 AM 21.0 °F 8.6 °F 5.0 °F 50% 29.61 in 10.0 mi NE 12.7 mph 25.3 mph N/A   Clear
9:53 AM 21.9 °F 9.8 °F 3.9 °F 46% 29.60 in 10.0 mi NE 12.7 mph 20.7 mph N/A   Clear
10:53 AM 21.9 °F 9.8 °F 5.0 °F 48% 29.59 in 10.0 mi NNE 12.7 mph 20.7 mph N/A   Clear
11:53 AM 24.1 °F 11.0 °F 3.9 °F 42% 29.57 in 10.0 mi NE 16.1 mph 34.5 mph N/A   Clear
12:53 PM 24.1 °F 10.6 °F 5.0 °F 44% 29.56 in 10.0 mi NE 17.3 mph 28.8 mph N/A   Partly Cloudy
1:53 PM 24.1 °F 12.0 °F 6.1 °F 46% 29.55 in 10.0 mi NE 13.8 mph 25.3 mph N/A   Clear
2:53 PM 24.1 °F 11.0 °F 7.0 °F 48% 29.54 in 10.0 mi NE 16.1 mph 29.9 mph N/A   Clear
3:53 PM 24.1 °F 11.0 °F 6.1 °F 46% 29.54 in 10.0 mi NE 16.1 mph 21.9 mph N/A   Clear
4:53 PM 21.0 °F 14.6 °F 7.0 °F 55% 29.55 in 10.0 mi NNE 4.6 mph - N/A   Clear
5:53 PM 19.9 °F 10.1 °F 7.0 °F 57% 29.55 in 10.0 mi ENE 8.1 mph - N/A   Clear
6:53 PM 19.0 °F 10.0 °F 6.1 °F 57% 29.54 in 10.0 mi ENE 6.9 mph - N/A   Clear
7:53 PM 21.0 °F 10.6 °F 5.0 °F 50% 29.54 in 10.0 mi ENE 9.2 mph - N/A   Clear
8:53 PM 23.0 °F 13.1 °F 5.0 °F 46% 29.55 in 10.0 mi East 9.2 mph - N/A   Clear
9:53 PM 19.9 °F 10.1 °F 3.9 °F 50% 29.55 in 10.0 mi East 8.1 mph - N/A   Clear
10:53 PM 21.0 °F 14.6 °F 3.9 °F 48% 29.55 in 10.0 mi North 4.6 mph - N/A   Clear
11:53 PM 19.0 °F 11.1 °F 3.9 °F 52% 29.55 in 10.0 mi NE 5.8 mph - N/A   Clear